TimeMDT,TemperatureF,Dew PointF,Humidity,Sea Level PressureIn,VisibilityMPH,Wind Direction,Wind SpeedMPH,Gust SpeedMPH,PrecipitationIn,Events,Conditions,WindDirDegrees,DateUTC
12:53 AM,48.9,43.0,80,30.17,10.0,West,10.4,-,N/A,,Clear,280,2013-05-11 06:53:00
1:53 AM,46.9,43.0,86,30.18,10.0,NW,9.2,-,N/A,,Scattered Clouds,320,2013-05-11 07:53:00
2:53 AM,48.0,42.1,80,30.22,10.0,North,12.7,-,N/A,,Clear,350,2013-05-11 08:53:00
3:53 AM,45.0,41.0,86,30.23,10.0,North,4.6,-,N/A,,Partly Cloudy,360,2013-05-11 09:53:00
4:53 AM,46.0,41.0,83,30.25,10.0,North,10.4,-,N/A,,Clear,360,2013-05-11 10:53:00
5:53 AM,44.1,39.9,85,30.29,10.0,North,8.1,-,N/A,,Clear,360,2013-05-11 11:53:00
6:53 AM,46.9,41.0,80,30.32,10.0,North,10.4,-,N/A,,Clear,10,2013-05-11 12:53:00
7:53 AM,51.1,39.9,66,30.35,10.0,North,13.8,-,N/A,,Clear,10,2013-05-11 13:53:00
8:53 AM,54.0,34.0,47,30.35,10.0,NNE,16.1,-,N/A,,Partly Cloudy,30,2013-05-11 14:53:00
9:53 AM,57.0,32.0,39,30.36,10.0,North,16.1,21.9,N/A,,Clear,10,2013-05-11 15:53:00
10:53 AM,59.0,30.9,35,30.36,10.0,North,13.8,20.7,N/A,,Clear,10,2013-05-11 16:53:00
11:53 AM,61.0,30.0,31,30.35,10.0,NNE,11.5,20.7,N/A,,Clear,20,2013-05-11 17:53:00
12:53 PM,62.1,30.0,30,30.33,10.0,Variable,5.8,-,N/A,,Clear,0,2013-05-11 18:53:00
1:53 PM,64.0,32.0,30,30.31,10.0,NNW,10.4,-,N/A,,Clear,340,2013-05-11 19:53:00
2:53 PM,64.9,30.9,28,30.28,10.0,East,4.6,-,N/A,,Mostly Cloudy,80,2013-05-11 20:53:00
3:53 PM,66.0,32.0,28,30.25,10.0,NE,10.4,-,N/A,,Partly Cloudy,40,2013-05-11 21:53:00
4:53 PM,64.9,30.9,28,30.25,10.0,Calm,Calm,-,N/A,,Mostly Cloudy,0,2013-05-11 22:53:00
5:53 PM,64.9,33.1,31,30.23,10.0,South,5.8,-,N/A,,Clear,190,2013-05-11 23:53:00
6:53 PM,64.9,33.1,31,30.20,10.0,SE,3.5,-,N/A,,Clear,140,2013-05-12 00:53:00
7:53 PM,55.0,34.0,45,30.23,10.0,SE,8.1,-,N/A,,Clear,130,2013-05-12 01:53:00
8:53 PM,53.1,34.0,48,30.22,10.0,SE,6.9,-,N/A,,Partly Cloudy,140,2013-05-12 02:53:00
9:53 PM,55.9,35.1,45,30.23,10.0,SSW,8.1,-,N/A,,Clear,200,2013-05-12 03:53:00
10:53 PM,48.9,39.0,69,30.25,10.0,South,8.1,-,N/A,,Clear,180,2013-05-12 04:53:00
11:53 PM,51.1,41.0,68,30.21,10.0,South,10.4,-,N/A,,Clear,190,2013-05-12 05:53:00